www.pogodaiklimat.ru

Погода и климат >> Архив погоды >> Россия >> Карелия >> Сортавала


АРХИВ ПОГОДЫ в Сортавале

Время (UTC), дата Ветер
(напр.,м/с)
 
Видим.   Явления Облачность Т
(С)
Тd
(С)
f
(%)
Тe
(С)
Тes
(С)
Комфортность P
(гПа)
Po
(гПа)
Тmin
(С)
Tmax
(С)
R
(мм)
R24
(мм)
S
(см)
06 17.02 СЗ 6-12
{14}
50 км 9/4 600 м
[Sc Ac trans]
+1.8 -5.8 57 -4 -4 993.2 990.9 -1.7 51
09 17.02 СЗ 9-15
{17}
50 км {ливн. осадки} 9/3 600 м
[Cb cap Ac trans]
+1.4 -7.9 50 -5 -5 998.4 996.1
12 17.02 СЗ 8-15
{18}
50 км {ливн. осадки} 8/8 1380 м
[Sc]
+1.2 -8.9 47 -5 -5 1003.7 1001.4
15 17.02 СЗ 6-11
{16}
50 км 8/8 1410 м
[Sc]
0.0 -10.4 45 -6 -6 1009.2 1006.8 0.0
18 17.02 СЗ 4
{12}
50 км 8/0
[Ci fib]
-2.0 -11.7 47 -7 -7 1013.4 1011.0 +2.0 0.0
21 17.02 СЗ 2 50 км 6/0
[Ci fib]
-4.2 -12.4 53 -8 -8 1017.4 1015.0
00 18.02 СЗ 2 50 км 9/0
[Ci fib]
-6.7 -12.5 63 -11 -11 1019.7 1017.3
03 18.02 СЗ 1 50 км 9/0
[Ci fib]
-8.0 -12.5 70 -10 -10 1021.4 1018.9 -8.1
06 18.02 штиль 0 50 км 4/0
[Ci fib]
-12.2 -14.2 85 -12 -12 1022.2 1019.7 -12.4 49
09 18.02 штиль 0 50 км 9/0
[Ac trans Ci fib]
-5.9 -11.7 64 -6 -5 1022.2 1019.8
12 18.02 Ю 3 50 км 10/0
[Ac und]
-3.3 -8.3 68 -8 -8 1019.8 1017.4
15 18.02 Ю 4 50 км 10/0
[Ac und]
-2.3 -9.5 58 -8 -8 1016.0 1013.6
18 18.02 Ю 5
{10}
50 км 10/10 1080 м
[Sc]
-1.6 -8.9 57 -8 -8 1010.6 1008.2 -1.4
21 18.02 Ю 2 50 км 10/10 800 м
[Sc]
-0.5 -7.1 61 -4 -4 1005.5 1003.1
00 19.02 ЮЗ 3 13 км 10/10 300 м
[St]
+0.9 -1.7 83 -4 -4 1001.9 999.6
03 19.02 ЮЗ 3 11 км слаб. ливневой дождь 10/10 360 м
[Cb cap]
+2.0 -0.3 85 -2 -2 1000.1 997.8 -2.4 0.3
06 19.02 ЮЗ 2 50 км {ливн. осадки} 10/10 570 м
[Sc]
+2.2 -0.2 84 -1 -1 999.9 997.6 -1.6 0.3 49
09 19.02 Ю 2 3500 м слаб. морось 10/10 300 м
[St]
+2.1 +0.5 89 -1 -1 999.6 997.3
12 19.02 Ю 2 5000 м слаб. ливневой дождь {морось} 10/10 480 м
[Cb cap]
+1.5 0.0 90 -2 -2 997.8 995.5
15 19.02 Ю 2 5000 м слаб. ливневой дождь 10/10 540 м
[Cb cap]
+1.2 -0.3 90 -2 -2 994.9 992.6 3
18 19.02 Ю 1 3000 м слаб. ливневой снег [диам. отлож. мокр. снега 0 мм] 10/10 400 м
[Cb cap]
+0.3 -1.0 91 -2 -2 991.7 989.4 +2.5 7
21 19.02 Ю 1 4000 м слаб. ливневой снег [диам. отлож. мокр. снега 2 мм] 10/10 400 м
[Cb cap]
+0.1 -1.0 92 -2 -2 988.9 986.6
00 20.02 штиль 0 1800 м ливневой снег [диам. отлож. мокр. снега 7 мм] 10/10 400 м
[Cb cap]
+0.1 -0.8 94 -1 -1 987.1 984.8
03 20.02 ЮЗ 2 9000 м слаб. ливневой дождь со снегом [диам. отлож. мокр. снега 0 мм] 10/10 400 м
[Cb cap]
+0.7 -0.5 92 -3 -3 986.4 984.1 0.0 6
06 20.02 ЮЗ 1 3700 м дымка {ливн. осадки} 10/10 210 м
[St]
+0.8 -0.4 92 -1 -1 986.1 983.8 0.0 6 50
09 20.02 ЮЗ 2 2600 м дымка {туман} 10/10 270 м
[St]
+1.4 +0.4 93 -2 -2 986.3 984.0
12 20.02 З 2 14 км {туман} 10/10 300 м
[St]
+2.1 +0.3 88 -1 -1 986.9 984.6
15 20.02 З 6-11
{11}
6000 м слаб. ливневой снег 10/10 570 м
[Cb cap]
-0.7 -2.9 85 -8 -8 989.3 987.0 0.7
18 20.02 СЗ 5
{13}
2800 м ливневой снег {метель} 10/10 500 м
[Cb cap]
-4.1 -6.7 82 -11 -11 992.6 990.2 +2.2 2
21 20.02 С 6-11
{15}
2600 м ливневой снег {метель} 10/10 480 м
[Cb cap]
-6.1 -9.7 76 -14 -14 998.8 996.4
00 21.02 С 5-11
{16}
14 км позёмок {ливн. осадки} 9/3 300 м
[Cb cap As trans]
-6.8 -11.4 70 -14 -14 1004.5 1002.1
03 21.02 СЗ 5-10
{13}
50 км позёмок {ливн. осадки} ясно -8.4 -13.0 69 -16 -16 1009.1 1006.7 -8.5 1
06 21.02 С 5
{13}
50 км {ливн. осадки, метель} ясно -9.7 -14.1 70 -17 -17 1013.4 1010.9 -9.8 1 48
09 21.02 С 4
{10}
50 км ясно -7.8 -14.2 60 -14 -13 1016.9 1014.5
12 21.02 С 3
{10}
50 км ясно -5.7 -13.4 55 -11 -10 1019.6 1017.2
15 21.02 СЗ 3 50 км ясно -7.5 -14.2 59 -13 -13 1022.7 1020.2
18 21.02 СЗ 3 50 км ясно -9.8 -14.3 70 -16 -16 1025.8 1023.3 -5.5
21 21.02 С 2 50 км ясно -11.0 -14.7 74 -15 -15 1028.4 1025.9
00 22.02 СЗ 2 50 км ясно -11.9 -15.4 75 -16 -16 1030.5 1028.0
03 22.02 З 1 50 км ясно -13.3 -17.0 74 -16 -16 1033.5 1031.0 -13.6
06 22.02 СЗ 3 50 км ясно -13.6 -18.0 69 -20 -20 1035.8 1033.3 -13.9 47
09 22.02 СЗ 3 50 км ясно -9.1 -16.9 53 -15 -13 1037.7 1035.2
12 22.02 СЗ 3 50 км ясно -5.5 -16.9 40 -10 -9 1037.8 1035.3
15 22.02 З 2 50 км 8/0
[Ci]
-7.4 -16.1 50 -11 -11 1037.7 1035.2
18 22.02 штиль 0 50 км 6/0
[Ci fib]
-11.7 -16.7 66 -12 -12 1036.2 1033.7 -5.5
21 22.02 ЮЗ 2 30 км 9/0
[Ac trans Ci fib]
-8.5 -16.1 54 -13 -13 1033.3 1030.8
00 23.02 ЮЗ 3 50 км 9/8 1000 м
[Sc Ac trans]
-6.3 -16.5 44 -11 -11 1029.1 1026.6
03 23.02 ЮЗ 2 1800 м ливневой снег 10/10 500 м
[Cb cap]
-6.8 -8.9 85 -11 -11 1024.7 1022.2 -13.1 3
06 23.02 З 1 50 км в посл. час ливневой снег 10/10 700 м
[Cb cap]
-4.2 -6.0 87 -7 -7 1021.3 1018.9 -13.1 5 51
09 23.02 З 2 50 км 10/10 540 м
[Cb cap]
-1.2 -3.1 87 -5 -5 1019.7 1017.3
12 23.02 З 2 17 км 10/10 500 м
[Cb cap]
+1.4 -0.7 86 -2 -2 1019.3 1016.9
15 23.02 Ю 1 28 км 4/3 600 м
[Sc Ac trans Ci fib]
+1.2 -0.7 87 -1 -1 1019.6 1017.2
18 23.02 штиль 0 300 м туман ясно -3.8 -5.2 90 -5 -5 1019.8 1017.4 +2.4
21 23.02 З 2 15 км дымка {туман} ясно +1.2 +0.2 93 -2 -2 1019.9 1017.5
00 24.02 З 2 50 км {туман} ясно +1.2 -0.5 88 -2 -2 1019.8 1017.4
03 24.02 штиль 0 300 м туман ясно -2.3 -3.3 93 -4 -4 1019.2 1016.8 -4.7

 

Местоположение метеостанции Сортавала (Карелия, Россия): широта 61.72 долгота 30.72 высота над уровнем моря 19 м.

В архиве по умолчанию представлена погода в Сортавале за последнюю неделю. Архивные данные за месяц целиком и за предыдущие месяцы, начиная с января 2011 года, Вы можете получить, выбрав интересующий диапазон дат из раскрывающегося списка и нажав кнопку "Ввод!".


*Определитесь, кто Вы:
робот инопланетянин человек

Внимание! Время в таблицах - всемирное. Для получения местного времени необходимо прибавить поправку, которая равна 3 ч.

Смотрите также архив погоды в соседних городах и на ближайших метеорологических станциях:

Погода на Валаам Острове (Карелия, Россия) (40 км)
Погода в Вяртсиле (Карелия, Россия) (51 км)
Погода в Тохмаярви (Финляндия) (61 км)
Погода в Париккала Коицанлахти (Финляндия) (74 км)
Погода в Лаукансаари (Финляндия) (74 км)
Погода в Суоярви (Карелия, Россия) (97 км)
Погода в Савонлинне (Финляндия) (97 км)
Погода в Липери Туискаванлуото (Финляндия) (107 км)
Погода в Йоэнсуу (Финляндия) (111 км)
Погода в Мекриярви (Финляндия) (118 км)

Пояснения к столбцам:

Ветер - указаны скорость ветра в м/с - средняя за 10 мин, порывы в срок и между сроками (в фигурных скобках) и направление, откуда дует ветер: С - северный, СВ - северо-восточный, В - восточный, ЮВ - юго-восточный, Ю - южный, ЮЗ - юго-западный, З - западный, СЗ - северо-западный.
Видимость - горизонтальная дальность видимости в метрах или километрах. При видимости от 1 до 10 км при отсутствии осадков обычно наблюдается дымка, при ухудшении видимости до 1 км и менее - туман. В сухую погоду видимость может ухудшаться дымом, пылью или мглою.
Явления - указаны атмосферные явления, наблюдавшиеся в срок или в последний час перед сроком; фигурными скобками обозначены явления, наблюдавшиеся между сроками (за 1-3 часа до срока); квадратными скобками обозначены град или гололедные отложения с указанием их диаметра в мм.
Облачность - указаны через наклонную черту общая и нижняя облачность в баллах и высота нижней границы облаков в метрах; квадратными скобками обозначены формы облаков: Ci - перистые, Cs - перисто-слоистые, Cc - перисто-кучевые, Ac - высококучевые, As - высокослоистые, Sc - слоисто-кучевые, Ns - слоисто-дождевые, Cu - кучевые, Cb - кучево-дождевые. Подробнее классификацию облаков см. в Атласе облаков (PDF).
T - Температура воздуха - температура, измеренная на высоте 2 м над землей.
Td - Температура точки росы - температура, при понижении до которой содержащийся в воздухе водяной пар достигнет насыщения.
f - Относительная влажность воздуха - влажноcть воздуха, измеренная на высоте 2 м над землей.
Te - Эффективная температура - температура, которую ощущает одетый по сезону человек в тени. Характеристика душности погоды. При расчете учитывается влияние влажности воздуха и скорости ветра на теплоощущения человека.
Tes - Эффективная температура на солнце - температура, которую ощущает человек, с поправкой на солнечный нагрев. Характеристика знойности погоды. Зависит от высоты солнца над горизонтом, облачности и скорости ветра. Ночью, в пасмурную погоду, а также при ветре 12 м/с и более поправка равна нулю.
P - Атмосферное давление - приведенное к уровню моря атмосферное давление.
Po - Атмосферное давление - измеренное на уровне метеостанции атмосферное давление.
Tmin - Минимальная температура - минимум температуры воздуха на высоте 2 м над землей.
Tmax - Максимальная температура - максимум температуры воздуха на высоте 2 м над землей.
R - Количество осадков - Количество выпавших осадков за период времени, мм. При наведении курсора мыши на число - период времени, за который выпало указанное количество осадков.
R24 - Количество осадков - Количество выпавших осадков за 24 часа, мм.
S - Снежный покров - Высота снежного покрова, см. При наведении курсора мыши на число - состояние снежного покрова и степень покрытия местности в баллах.